Find Shiyan Weixing 1

NORAD ID: 28220 Int'l Des: 2004-012 Owner: CASC Country: CN operational
LEOCIRCULARRETROGRADE

当前视图

正在加载3D地球...

About Shiyan Weixing 1

Shiyan Weixing 1 (NORAD 28220) is a satellite launched Apr 18, 2004 by CASC of CN. It operates in LEO, CIRCULAR, RETROGRADE orbit with a mass of 204.00 kg.

即将过境

Passes for default location (London). Set your location on the main map for personalized predictions.

高度历史

Loading altitude history...

两行轨道根数

1 28220U 04012A 26194.20906281 .00008263 00000-0 25047-3 0 9991
2 28220 97.8692 273.9793 0004070 284.5782 75.5008 15.34420203215089
Epoch: Jul 13, 2026 • Age: 20 hours

当前状态

高度 465.4 km
远地点 / 近地点 N/A
速度 7.64 km/s
星下点 17.59°N, 41.15°W
发射日期 Apr 18, 2004
运行时间 22.2 years
类型 other

技术详情

分类 Payload
质量 204.00 kg
干质量 204.00 kg
总质量 204.00 kg
长度 1.00 m
直径 1.00 m
跨度 3.00 m
形状 Box + 2 Pan
制造商 DFH/HARB
平台类型 SY
阶段状态 In Orbit
所有者/国家 CASC/CN

Most Searched